College Park, MD

8:23 AM EDT on May 26, 2017 (GMT -0400)
College Park

Weather History for KCGS - February, 2013

Change the Weather History Date:

Friday, February 22, 2013

  Actual Average Record
Temperature  
Mean Temperature 34 °F -  
Max Temperature 36 °F 50 °F 72 °F (1974)
Min Temperature 32 °F 29 °F 8 °F (1963)
Degree Days  
Heating Degree Days 31    
Moisture  
Dew Point 26 °F    
Average Humidity 74    
Maximum Humidity 100    
Minimum Humidity 57    
Precipitation  
Precipitation 0.00 in - - ()
Sea Level Pressure  
Sea Level Pressure 30.32 in    
Wind  
Wind Speed 2 mph (ENE)    
Max Wind Speed 9 mph    
Max Gust Speed -    
Visibility 9 miles    
Events      
Averages and records for this station are not official NWS values.
T = Trace of Precipitation, MM = Missing Value Source: NWS Daily Summary

Daily Weather History Graph

Daily Weather History Graph

Search for Another Location

Airport or City:

Trip Planner

Search our weather history database for the weather conditions in past years. The results will help you decide how hot, cold, wet, or windy it might be!

Date:

Astronomy

Feb. 22, 2013 Rise Set
Actual Time 6:49 AM EST 5:53 PM EST
Civil Twilight 6:22 AM EST 6:20 PM EST
Nautical Twilight 5:51 AM EST 6:51 PM EST
Astronomical Twilight 5:20 AM EST 7:22 PM EST
Moon 3:03 PM EST (2/22) 4:32 AM EST (2/22)
Length of Visible Light 11h 57m
Length of Day
11h 03m
Waxing Gibbous, 90% of the Moon is Illuminated
Feb 22
Waxing Gibbous
Feb 25
Full
Mar 4
Last Quarter
Mar 11
New
Mar 19
First Quarter

Hourly Weather History & Observations

Time (EST) Temp. Windchill Dew Point Humidity Pressure Visibility Wind Dir Wind Speed Gust Speed Precip Events Conditions
12:10 AM 32.2 °F - 18.9 °F 58% 30.31 in 10.0 mi Calm Calm - N/A   Clear
12:30 AM 32.4 °F 26.9 °F 19.0 °F 58% 30.32 in 10.0 mi North 5.8 mph - N/A   Clear
12:50 AM 32.4 °F - 19.2 °F 58% 30.33 in 10.0 mi Calm Calm - N/A   Clear
1:05 AM 32.4 °F - 18.7 °F 57% 30.33 in 10.0 mi Calm Calm - N/A   Clear
1:30 AM 32.2 °F 26.7 °F 19.4 °F 59% 30.31 in 10.0 mi North 5.8 mph - N/A   Clear
1:50 AM 32.0 °F 28.7 °F 19.8 °F 61% 30.31 in 10.0 mi North 3.5 mph - N/A   Clear
2:10 AM 32.2 °F - 19.2 °F 59% 30.33 in 10.0 mi Calm Calm - N/A   Clear
2:30 AM 32.2 °F - 19.4 °F 59% 30.33 in 10.0 mi Calm Calm - N/A   Clear
2:50 AM 32.5 °F 29.3 °F 19.6 °F 59% 30.34 in 10.0 mi WNW 3.5 mph - N/A   Clear
3:10 AM 32.9 °F 29.8 °F 19.8 °F 59% 30.35 in 10.0 mi NW 3.5 mph - N/A   Clear
3:30 AM 32.7 °F 29.6 °F 19.9 °F 59% 30.36 in 10.0 mi WNW 3.5 mph - N/A   Clear
3:50 AM 32.7 °F - 19.9 °F 59% 30.38 in 10.0 mi Calm Calm - N/A   Clear
4:10 AM 32.9 °F 28.5 °F 19.9 °F 59% 30.39 in 10.0 mi NW 4.6 mph - N/A   Clear
4:30 AM 32.4 °F - 20.1 °F 61% 30.38 in 10.0 mi Calm Calm - N/A   Clear
4:50 AM 32.4 °F 29.1 °F 20.1 °F 61% 30.39 in 10.0 mi NW 3.5 mph - N/A   Clear
5:05 AM 32.4 °F - 20.1 °F 61% 30.39 in 10.0 mi Calm Calm - N/A   Clear
5:30 AM 32.0 °F - 21.2 °F 64% 30.36 in 10.0 mi Calm Calm - N/A   Clear
6:10 AM 32.2 °F 27.7 °F 20.8 °F 63% 30.36 in 10.0 mi NNE 4.6 mph - N/A   Clear
6:30 AM 32.2 °F 28.9 °F 20.7 °F 63% 30.35 in 10.0 mi NNE 3.5 mph - N/A   Clear
6:50 AM 32.2 °F - 20.7 °F 63% 30.37 in 10.0 mi Calm Calm - N/A   Clear
7:10 AM 32.2 °F 28.9 °F 21.0 °F 63% 30.38 in 10.0 mi NE 3.5 mph - N/A   Clear
7:30 AM 32.2 °F 28.9 °F 21.2 °F 64% 30.40 in 10.0 mi North 3.5 mph - N/A   Clear
7:50 AM 32.5 °F - 21.4 °F 64% 30.40 in 10.0 mi Calm Calm - N/A   Clear
8:10 AM 32.9 °F 28.5 °F 21.6 °F 63% 30.39 in 10.0 mi NE 4.6 mph - N/A   Clear
8:30 AM 33.1 °F 27.7 °F 21.6 °F 63% 30.39 in 10.0 mi East 5.8 mph - N/A   Mostly Cloudy
8:50 AM 33.4 °F 26.6 °F 21.9 °F 63% 30.38 in 10.0 mi East 8.1 mph - N/A   Mostly Cloudy
9:10 AM 33.4 °F 28.1 °F 22.1 °F 63% 30.37 in 10.0 mi ENE 5.8 mph - N/A   Mostly Cloudy
9:30 AM 33.8 °F 27.0 °F 22.3 °F 63% 30.35 in 10.0 mi ENE 8.1 mph - N/A   Overcast
9:50 AM 34.2 °F 26.8 °F 22.6 °F 63% 30.35 in 10.0 mi ENE 9.2 mph - N/A   Overcast
10:10 AM 34.7 °F 27.5 °F 22.6 °F 61% 30.35 in 10.0 mi East 9.2 mph - N/A   Overcast
10:30 AM 35.6 °F 30.7 °F 23.2 °F 61% 30.35 in 10.0 mi ENE 5.8 mph - N/A   Overcast
10:50 AM 35.4 °F 30.5 °F 23.4 °F 62% 30.34 in 10.0 mi ESE 5.8 mph - N/A   Overcast
11:10 AM 34.7 °F 28.8 °F 23.0 °F 62% 30.35 in 10.0 mi ESE 6.9 mph - N/A   Overcast
11:30 AM 35.6 °F 30.7 °F 23.7 °F 62% 30.36 in 10.0 mi ESE 5.8 mph - N/A   Overcast
11:50 AM 35.4 °F 31.5 °F 23.5 °F 62% 30.35 in 10.0 mi SE 4.6 mph - N/A   Overcast
12:10 PM 36.0 °F 31.1 °F 24.1 °F 62% 30.34 in 10.0 mi ESE 5.8 mph - N/A   Overcast
12:30 PM 35.2 °F 32.4 °F 25.0 °F 66% 30.34 in 10.0 mi SW 3.5 mph - N/A   Overcast
12:50 PM 35.1 °F - 24.8 °F 66% 30.33 in 7.0 mi Calm Calm - N/A   Overcast
1:10 PM 35.6 °F - 25.7 °F 67% 30.33 in 10.0 mi Calm Calm - N/A   Overcast
1:30 PM 35.1 °F 32.2 °F 26.1 °F 70% 30.32 in 10.0 mi SSE 3.5 mph - N/A   Overcast
1:50 PM 35.1 °F - 27.3 °F 73% 30.33 in 10.0 mi Calm Calm - N/A   Overcast
2:10 PM 34.7 °F - 27.5 °F 75% 30.32 in 7.0 mi Calm Calm - N/A   Overcast
2:30 PM 34.5 °F 31.6 °F 28.6 °F 79% 30.31 in 10.0 mi SE 3.5 mph - N/A   Overcast
2:50 PM 34.7 °F 31.8 °F 28.6 °F 78% 30.30 in 10.0 mi SE 3.5 mph - N/A   Overcast
3:10 PM 34.5 °F 31.6 °F 30.2 °F 84% 30.30 in 7.0 mi SE 3.5 mph - N/A   Overcast
3:30 PM 34.7 °F 30.6 °F 29.5 °F 81% 30.30 in 10.0 mi ESE 4.6 mph - N/A   Overcast
3:50 PM 34.7 °F - 29.7 °F 82% 30.30 in 10.0 mi Calm Calm - N/A   Overcast
4:10 PM 34.7 °F 31.8 °F 29.5 °F 81% 30.30 in 10.0 mi ESE 3.5 mph - N/A   Overcast
4:30 PM 34.3 °F 30.2 °F 30.2 °F 85% 30.30 in 7.0 mi SE 4.6 mph - N/A   Overcast
4:50 PM 34.2 °F - 31.1 °F 89% 30.30 in 10.0 mi Calm Calm - N/A   Overcast
5:10 PM 34.2 °F - 31.5 °F 90% 30.29 in 10.0 mi Calm Calm - N/A   Overcast
5:30 PM 34.0 °F - 31.8 °F 92% 30.29 in 10.0 mi Calm Calm - N/A   Overcast
5:50 PM 34.3 °F - 30.9 °F 87% 30.28 in 10.0 mi Calm Calm - N/A   Overcast
6:10 PM 34.7 °F 31.8 °F 30.7 °F 85% 30.29 in 7.0 mi SE 3.5 mph - N/A   Overcast
6:30 PM 34.0 °F - 32.0 °F 92% 30.29 in 10.0 mi Calm Calm - N/A   Overcast
6:50 PM 34.0 °F - 32.0 °F 92% 30.29 in 10.0 mi Calm Calm - N/A   Overcast
7:10 PM 33.8 °F - 32.0 °F 93% 30.28 in 10.0 mi Calm Calm - N/A   Overcast
7:30 PM 33.8 °F - 32.4 °F 94% 30.28 in 10.0 mi Calm Calm - N/A   Overcast
7:50 PM 33.8 °F - 32.4 °F 94% 30.28 in 10.0 mi Calm Calm - N/A   Overcast
8:10 PM 33.8 °F - 32.4 °F 94% 30.28 in 10.0 mi Calm Calm - N/A   Overcast
8:30 PM 34.0 °F - 32.9 °F 96% 30.28 in 7.0 mi Calm Calm - N/A   Overcast
8:50 PM 34.0 °F - 33.1 °F 96% 30.27 in 7.0 mi Calm Calm - N/A   Overcast
9:10 PM 33.8 °F - 33.1 °F 97% 30.26 in 7.0 mi Calm Calm - N/A   Overcast
9:30 PM 34.0 °F - 33.4 °F 98% 30.27 in 7.0 mi Calm Calm - N/A   Overcast
9:50 PM 34.0 °F - 33.8 °F 99% 30.26 in 4.0 mi Calm Calm - N/A   Overcast
10:10 PM 34.0 °F - 33.8 °F 99% 30.26 in 5.0 mi Calm Calm - N/A   Overcast
10:30 PM 34.0 °F - 34.0 °F 100% 30.26 in 4.0 mi Calm Calm - N/A   Overcast
10:50 PM 34.0 °F - 34.0 °F 100% 30.25 in 3.0 mi Calm Calm - N/A   Overcast
11:10 PM 34.0 °F - 34.0 °F 100% 30.24 in 5.0 mi Calm Calm - N/A   Overcast
11:30 PM 34.0 °F - 34.0 °F 100% 30.25 in 3.0 mi Calm Calm - N/A   Overcast
11:50 PM 34.0 °F - 34.0 °F 100% 30.23 in 3.0 mi Calm Calm - N/A   Overcast